TimePDT,TemperatureF,Dew PointF,Humidity,Sea Level PressureIn,VisibilityMPH,Wind Direction,Wind SpeedMPH,Gust SpeedMPH,PrecipitationIn,Events,Conditions,WindDirDegrees,DateUTC
12:54 AM,71.1,57.0,61,29.84,10.0,SSE,4.6,-,N/A,,Clear,150,2013-09-11 07:54:00
1:54 AM,70.0,57.0,63,29.86,10.0,Calm,Calm,-,N/A,,Clear,0,2013-09-11 08:54:00
2:54 AM,68.0,55.0,63,29.86,10.0,South,8.1,-,N/A,,Clear,170,2013-09-11 09:54:00
3:54 AM,66.9,55.0,66,29.88,10.0,SE,3.5,-,N/A,,Clear,140,2013-09-11 10:54:00
4:54 AM,64.0,55.0,73,29.88,10.0,Calm,Calm,-,N/A,,Clear,0,2013-09-11 11:54:00
5:54 AM,64.9,55.9,73,29.90,10.0,Calm,Calm,-,N/A,,Clear,0,2013-09-11 12:54:00
6:54 AM,64.0,55.0,73,29.92,10.0,Calm,Calm,-,N/A,,Clear,0,2013-09-11 13:54:00
7:54 AM,66.0,55.9,70,29.94,10.0,Calm,Calm,-,N/A,,Clear,0,2013-09-11 14:54:00
8:54 AM,68.0,55.9,65,29.94,10.0,SE,3.5,-,N/A,,Clear,140,2013-09-11 15:54:00
9:54 AM,72.0,55.9,57,29.94,10.0,SSE,3.5,-,N/A,,Clear,160,2013-09-11 16:54:00
10:54 AM,75.9,55.9,50,29.94,10.0,Variable,3.5,-,N/A,,Clear,0,2013-09-11 17:54:00
11:54 AM,81.0,55.0,41,29.93,10.0,Variable,4.6,-,N/A,,Clear,0,2013-09-11 18:54:00
12:54 PM,84.0,55.0,37,29.91,10.0,South,10.4,-,N/A,,Clear,190,2013-09-11 19:54:00
1:54 PM,87.1,55.0,33,29.90,10.0,SSE,10.4,-,N/A,,Clear,160,2013-09-11 20:54:00
2:54 PM,89.1,55.9,32,29.88,10.0,South,5.8,-,N/A,,Clear,170,2013-09-11 21:54:00
3:54 PM,88.0,55.0,32,29.86,10.0,South,8.1,-,N/A,,Clear,170,2013-09-11 22:54:00
4:54 PM,89.1,54.0,30,29.85,10.0,SSE,11.5,-,N/A,,Clear,160,2013-09-11 23:54:00
5:54 PM,88.0,57.9,36,29.85,10.0,South,12.7,-,N/A,,Clear,170,2013-09-12 00:54:00
6:54 PM,84.0,57.9,41,29.86,10.0,South,12.7,-,N/A,,Clear,170,2013-09-12 01:54:00
7:54 PM,78.1,57.0,48,29.88,10.0,SSE,6.9,-,N/A,,Clear,150,2013-09-12 02:54:00
8:54 PM,75.9,57.9,54,29.89,10.0,SSE,9.2,-,N/A,,Clear,160,2013-09-12 03:54:00
9:54 PM,73.0,57.9,59,29.91,10.0,SE,3.5,-,N/A,,Clear,140,2013-09-12 04:54:00
10:54 PM,71.1,59.0,66,29.91,10.0,Calm,Calm,-,N/A,,Clear,0,2013-09-12 05:54:00
11:54 PM,70.0,57.9,65,29.92,10.0,SSW,3.5,-,N/A,,Clear,200,2013-09-12 06:54:00